Tracking 17694 objects as of 29-May-2016
HD Live streaming from Space Station
objects crossing your sky now

COSMOS 2230

Track COSMOS 2230 now!
10-day predictions
COSMOS 2230 is classified as:


NORAD ID: 22307
Int'l Code: 1993-001A
Perigee: 976.9 km
Apogee: 1,011.3 km
Inclination: 82.9 °
Period: 104.8 minutes
Semi major axis: 7365 km
RCS: 1.5931 m2 (large)
Launch date: January 12, 1993
Source: Commonwealth of Independent States (former USSR) (CIS)
Launch site: PLESETSK MISSILE AND SPACE COMPLEX (PKMTR)
Your satellite tracking list
Your tracking list is empty





NASA's NSSDC Master Catalog

Two Line Element Set (TLE):
1 22307U 93001A   16150.52301113  .00000066  00000-0  54582-4 0  9996
2 22307  82.9397 122.0276 0023394 303.2953 196.0587 13.73523509163442
Source of the keplerian elements: AFSPC

N2YO: 511